Mentions légales

Ce site est édité par :


Association Club Aérien Lille Métropole


Route de l’Aéroport


Zone aviation de loisirs


59810 Lesquin


Tél. : 03 20 60 18 54


Email : info@calm.club

Directeur de la publication :

Jacques Flotat

Hébergeur :


OVH


2 Rue Kellermann


59100 Roubaix

 

La météo actuelle sur la plateforme de Lesquin LFQQ

TAF LFQQ
LFQQ 221100Z 2212/2318 VRB02KT CAVOK BECMG 2212/2215 SCT080CB TEMPO 2300/2314 27012KT 1200 TSRA BKN060CB BECMG 2314/2316 27015KT

Venir nous rencontrer

Route de l’Aéroport

59810 Lesquin

 

Téléphone : 03 20 60 18 54

Du mardi au samedi de 10h30 à 12h30

et de 13h à 18h.

Suivre notre actualité